Theta_e
343 343 327 322 313 310 305 311 316 316 320 324 328 324 319 325 320 310 338 345 346 345 347 349 352 351 350 351 352 354 355 355 355 353 352 351 349 348 348 349 351 351 348 354 353 352 351 351 351
334 334 321 317 307 301 305 310 312 320 323 323 324 322 321 321 336 336 338 345 346 346 344 345 352 351 351 351 353 355 355 354 353 352 351 349 347 347 346 347 347 350 348 350 352 351 351 350 349
322 320 314 311 306 302 304 314 314 324 325 329 323 325 326 327 336 337 342 345 345 342 343 345 351 351 352 351 353 355 354 354 352 351 349 347 346 348 348 349 348 347 349 349 349 350 350 349 349
311 314 312 304 302 308 312 314 322 321 325 325 323 319 327 337 336 341 344 344 342 340 340 350 351 352 352 352 353 353 353 353 351 350 348 346 348 349 348 348 348 347 346 347 348 349 349 348 349
310 308 306 304 306 311 315 321 318 323 324 324 324 319 321 335 342 342 341 342 339 337 341 345 352 352 351 351 352 353 353 353 351 349 347 346 348 349 349 348 347 347 346 346 346 347 348 349 349
305 306 299 301 305 315 317 319 325 321 324 324 322 321 321 339 338 339 340 338 340 340 341 343 351 352 351 351 352 352 353 352 350 349 347 346 347 347 346 346 347 347 347 346 345 345 346 348 349
302 299 297 303 308 309 317 322 321 323 324 325 326 318 322 332 335 339 338 338 340 341 340 340 344 348 352 351 352 352 352 351 351 350 349 347 345 345 344 344 344 345 347 347 347 347 347 348 349
306 301 296 303 305 307 316 317 327 324 325 332 329 318 317 328 335 338 337 336 334 337 338 336 339 343 341 343 352 352 352 351 351 350 349 348 345 344 343 346 345 341 343 345 345 345 345 347 348
304 296 293 297 307 312 316 312 326 329 328 330 331 326 327 331 335 334 333 332 333 335 333 334 336 337 338 340 345 351 351 351 351 349 350 349 340 337 339 342 343 345 343 344 345 346 346 347 346
300 294 297 302 312 311 314 314 319 326 325 326 327 327 329 331 333 330 330 329 331 331 334 333 334 335 336 343 339 339 342 343 343 343 342 342 338 335 339 342 346 348 347 346 346 346 347 343 332
298 297 300 303 306 308 307 314 317 324 319 325 323 324 326 330 330 330 330 331 329 331 334 335 334 335 336 336 335 335 335 337 340 341 339 339 339 335 337 336 334 335 339 334 334 331 329 326 329
296 301 302 303 305 306 305 312 318 324 322 330 327 327 325 328 328 329 328 330 327 329 331 333 334 333 334 332 335 333 333 333 333 336 337 335 335 334 334 335 334 331 330 329 330 329 329 328 329
297 301 302 304 303 303 314 316 316 319 328 329 327 327 325 324 327 329 330 330 329 328 329 330 331 331 332 330 333 330 331 332 332 331 334 335 333 332 335 334 333 329 329 330 331 331 330 329 328
301 300 302 302 303 302 314 315 320 325 329 326 326 325 326 325 323 326 326 327 327 328 328 330 330 330 330 330 330 331 330 331 330 331 333 335 335 335 335 333 334 333 332 334 334 333 331 329 325
301 298 301 301 302 308 318 313 316 326 328 326 325 326 327 327 326 323 325 325 327 327 328 328 328 328 328 329 329 328 331 331 331 332 334 336 336 335 337 334 334 335 335 333 330 329 327 326 326
297 297 293 299 302 313 313 306 315 326 326 325 326 326 327 328 328 325 323 324 325 327 325 327 330 327 327 328 328 327 329 331 332 332 333 337 339 337 337 335 333 335 336 332 327 326 324 324 327
294 291 292 298 301 304 307 306 314 325 325 324 325 325 326 327 327 327 324 322 323 325 324 325 326 326 327 328 328 327 327 330 332 331 334 336 340 340 338 337 336 337 334 328 327 325 324 324 325
290 291 293 295 299 300 304 308 313 319 323 323 323 323 325 325 326 328 324 321 321 324 325 325 326 327 327 328 327 327 327 328 328 329 336 337 341 342 338 338 338 336 333 331 329 328 326 325 324
295 294 293 297 301 298 297 298 311 316 318 320 321 322 323 325 328 328 326 322 321 323 324 324 325 327 327 325 326 324 327 327 331 330 334 338 339 342 341 338 337 336 334 332 330 328 328 328 328
295 293 293 297 300 297 298 300 309 315 316 318 319 320 322 324 323 325 326 321 320 321 325 325 326 327 327 329 329 329 326 326 329 332 335 338 339 339 340 339 337 336 335 332 330 330 329 329 329
293 291 293 294 298 298 297 298 310 315 317 318 320 321 322 322 321 322 323 323 321 320 323 326 326 327 328 329 326 328 329 328 327 328 330 334 340 341 340 340 340 337 337 336 332 332 330 328 329
290 297 298 297 294 290 296 288 298 311 314 316 318 320 320 320 322 322 321 322 322 322 324 325 327 328 329 329 328 328 328 326 328 329 330 332 337 341 342 341 341 338 338 335 335 335 332 331 328
296 300 298 297 293 290 293 289 292 306 310 314 318 320 320 321 321 320 321 322 323 322 322 324 323 328 330 330 331 329 328 326 326 328 328 330 334 339 341 338 336 335 336 336 335 335 335 333 330
303 298 295 291 290 287 290 290 290 295 308 306 315 320 321 322 319 321 322 322 321 323 322 324 323 324 330 331 331 330 329 327 328 330 329 330 333 337 339 341 338 335 336 337 336 335 335 333 332
297 291 286 286 286 287 294 292 298 307 319 321 317 322 327 329 329 330 330 330 324 321 323 327 325 324 329 331 331 331 331 331 330 331 333 331 335 336 336 337 337 336 337 338 338 336 333 333 332
293 292 287 283 284 287 293 291 301 315 324 328 324 321 323 327 328 329 330 330 332 332 332 332 328 327 327 332 333 334 336 337 337 336 337 337 335 335 336 337 337 336 339 337 335 334 334 333 331
294 291 294 289 287 287 290 300 306 316 320 320 317 318 316 315 316 322 324 324 326 331 333 334 334 332 331 335 338 339 335 329 328 327 333 335 334 336 337 337 336 335 332 332 332 333 333 331 329
296 298 292 289 284 283 290 295 296 307 312 316 313 312 314 315 316 318 320 322 331 331 332 334 336 337 336 335 334 332 331 331 330 327 331 332 331 332 335 333 332 332 334 331 331 329 328 323 320
295 292 291 291 290 286 287 292 309 309 312 316 317 317 313 316 318 320 322 329 331 334 334 333 333 333 332 332 332 332 332 332 332 326 327 331 332 335 333 333 330 330 330 329 327 326 321 316 315
298 293 292 288 287 289 293 295 313 312 313 319 320 318 322 321 320 325 330 330 329 329 330 331 332 332 333 331 331 332 333 331 329 329 331 335 334 332 330 329 328 324 322 320 320 318 317 315 313
Wind_Speed
5 5 1 2 5 5 4 3 2 2 4 3 4 3 5 3 0 4 0 8 18 12 10 12 16 15 14 14 13 12 9 13 13 12 12 12 12 12 11 10 11 10 10 10 11 11 11 10 9
4 2 3 3 6 5 5 2 3 2 8 8 7 4 4 3 3 8 6 11 15 12 8 8 17 16 15 15 13 11 13 12 11 11 10 11 11 10 9 9 10 10 10 9 10 10 9 9 8
4 1 3 4 4 3 4 1 2 5 10 3 6 4 4 3 6 7 10 13 13 7 7 10 17 16 15 15 13 12 12 12 11 10 9 9 9 10 8 8 9 10 10 10 9 8 8 9 9
3 3 4 4 1 5 3 2 7 5 1 4 7 6 5 4 7 9 15 13 13 7 6 14 16 16 15 15 14 13 12 12 11 10 8 8 9 8 8 7 8 8 8 9 9 9 8 9 8
3 3 4 2 4 4 5 4 8 2 1 2 3 4 4 3 12 18 16 13 14 8 6 10 17 16 16 15 15 13 12 12 11 9 7 7 8 8 7 7 6 7 6 5 5 6 6 6 6
4 3 4 2 4 3 6 4 7 3 3 4 6 5 3 10 16 14 13 11 9 11 7 8 16 16 15 15 14 14 12 11 10 8 7 6 5 6 7 6 6 6 5 5 5 4 4 4 4
5 4 3 2 3 5 5 3 9 5 6 1 6 5 3 8 8 14 12 9 8 7 8 6 7 11 15 14 14 13 12 11 10 8 6 5 4 4 3 4 5 5 5 6 5 6 5 6 6
5 4 1 2 1 5 5 2 6 3 2 6 7 6 6 10 13 11 9 7 6 5 5 6 6 6 6 7 13 13 12 10 9 7 6 4 4 3 2 1 1 3 4 5 5 5 4 7 4
3 5 2 4 2 2 5 4 5 3 10 3 5 6 8 16 14 13 10 6 4 5 4 5 6 6 6 6 7 11 12 11 10 8 8 4 2 3 3 3 4 3 1 1 1 1 3 7 3
5 4 9 5 4 1 1 3 5 5 7 3 4 11 19 19 16 16 14 12 9 9 8 7 7 7 6 6 5 6 5 4 4 4 5 3 3 3 5 6 5 5 5 4 3 4 4 6 1
5 6 4 4 4 8 9 7 6 8 6 7 11 18 18 18 14 15 14 17 21 14 9 11 9 8 8 6 4 3 2 3 3 6 5 3 3 3 3 3 2 3 5 3 5 5 3 1 2
1 6 4 5 6 7 10 8 7 12 7 9 14 22 19 18 16 15 14 12 9 13 15 11 10 9 8 4 5 4 3 3 3 5 6 4 3 4 4 3 3 3 2 4 3 2 4 6 2
4 5 4 8 9 9 7 13 8 5 3 12 15 18 19 17 17 15 17 14 12 12 13 13 11 10 8 6 4 4 5 5 6 4 5 4 4 5 3 4 3 4 3 3 4 4 3 5 5
5 3 9 8 10 4 5 5 8 5 10 14 18 17 15 17 18 15 13 14 13 14 14 12 14 12 9 8 8 8 6 7 4 4 5 7 5 4 4 4 4 4 4 4 4 5 4 3 2
3 6 8 4 3 3 12 4 9 9 14 15 16 16 16 16 16 19 18 15 16 13 15 15 15 13 12 12 9 7 8 7 6 7 7 7 7 6 6 4 4 4 4 5 4 4 2 2 2
3 5 4 5 1 1 5 7 6 5 14 17 17 14 15 16 16 13 16 17 14 14 15 15 14 15 14 13 10 8 7 7 7 6 5 9 9 8 5 4 5 5 3 3 3 2 2 3 3
7 2 3 9 4 3 3 5 4 9 11 14 15 15 16 16 11 14 12 16 16 16 15 14 14 15 16 13 9 9 9 7 7 6 6 7 9 8 8 6 5 5 3 4 3 3 3 3 3
4 2 3 5 4 5 6 8 7 14 16 17 15 15 17 17 22 19 13 10 13 16 16 16 15 15 16 10 6 4 4 5 4 7 7 8 8 10 8 5 6 4 4 4 3 5 4 4 4
2 1 4 6 4 3 6 5 11 17 11 12 13 17 17 21 20 14 14 12 11 13 14 16 16 16 12 6 7 4 7 4 4 5 8 8 10 9 8 5 5 5 5 6 6 3 5 4 2
2 2 6 9 5 2 8 9 8 18 26 22 18 17 19 18 13 15 14 11 14 16 15 16 18 16 14 10 10 6 7 5 5 6 9 9 9 8 8 6 7 6 4 4 6 5 2 1 3
3 5 6 9 7 4 3 7 5 4 2 5 13 15 16 19 19 16 16 19 13 15 18 17 16 16 14 15 4 2 3 4 1 4 3 5 7 8 7 7 5 6 3 5 5 3 2 1 1
4 10 9 6 3 5 4 5 6 5 17 12 12 15 14 14 13 14 16 16 17 20 14 15 16 16 15 13 11 14 10 10 8 9 4 5 6 6 7 7 5 1 3 4 0 6 5 4 1
13 4 7 5 7 3 7 5 7 2 12 19 21 17 18 16 11 12 13 13 10 3 6 8 9 12 13 13 16 12 11 5 3 4 6 5 5 6 6 4 6 5 1 4 5 6 7 4 3
1 6 6 4 4 4 3 5 5 8 10 13 18 23 19 9 2 4 6 8 6 8 8 9 10 13 15 15 16 15 13 6 5 4 5 4 4 5 5 5 2 4 5 4 5 5 6 6 5
6 7 4 5 6 5 4 5 2 6 8 10 11 14 13 10 8 7 8 7 5 6 9 9 11 13 9 10 8 5 6 5 5 3 4 5 6 5 6 5 5 8 5 6 7 6 5 6 6
2 9 8 5 4 4 3 4 5 7 8 15 13 12 10 11 9 9 6 5 4 4 5 5 4 5 6 6 5 2 6 6 8 12 7 4 3 2 2 3 4 2 2 1 4 3 4 6 4
4 3 4 9 3 3 2 4 2 9 11 10 11 13 10 11 8 7 7 10 12 10 10 11 8 5 6 8 9 12 13 16 12 16 17 7 5 4 0 4 3 1 3 4 3 3 3 4 3
7 7 5 4 5 3 4 3 2 8 8 8 6 6 7 8 9 9 10 9 8 8 9 12 13 15 17 16 14 13 11 12 7 9 6 8 4 3 3 4 4 4 5 5 2 4 4 8 5
3 2 7 6 5 6 4 2 5 4 6 8 9 5 2 4 6 7 6 5 6 7 10 10 11 12 14 15 15 13 10 1 8 6 8 9 1 3 4 5 5 6 5 5 5 5 8 7 7
5 4 5 7 4 3 5 3 3 5 5 5 6 8 7 6 6 4 5 7 8 9 11 12 11 12 9 7 5 4 4 8 5 7 9 5 7 7 7 9 8 5 6 4 5 6 6 6 6
Wind_Direction
126 132 104 48 50 54 327 330 217 204 55 295 104 153 152 34 135 196 150 133 128 140 149 142 142 138 133 125 115 109 107 98 94 96 94 93 92 94 93 94 94 107 104 98 104 104 101 102 111
117 101 39 58 78 45 299 333 310 191 134 109 86 70 38 92 84 119 100 138 130 141 139 141 145 141 133 125 122 120 108 110 109 108 107 107 103 95 94 97 99 104 113 110 103 106 100 90 90
151 219 86 103 110 144 232 19 78 149 163 152 121 89 109 136 117 130 127 133 123 125 140 151 144 142 135 130 135 129 127 125 119 117 117 111 102 100 99 104 106 114 122 123 121 111 97 88 80
172 27 22 80 340 247 244 66 131 136 193 36 102 66 65 191 138 136 132 132 123 132 151 143 147 145 141 145 144 141 143 132 130 129 123 110 104 103 106 98 100 106 124 132 138 132 119 99 95
39 51 48 27 266 266 272 169 169 226 105 117 105 116 76 33 110 130 137 140 143 147 157 146 153 152 154 154 150 150 148 141 136 134 133 117 118 115 102 99 94 98 107 120 124 124 117 108 113
42 102 56 278 265 263 275 212 116 144 138 175 102 98 69 134 136 144 142 143 147 150 150 157 161 160 161 159 155 153 155 146 144 151 144 136 130 120 117 106 95 91 82 75 79 91 91 73 84
121 89 212 245 294 319 296 96 130 165 152 186 125 80 63 160 156 142 141 135 144 154 155 153 159 168 167 164 159 159 159 154 158 162 163 155 153 140 114 116 124 118 113 101 88 85 85 72 54
113 90 348 261 260 271 263 129 105 115 238 109 136 150 178 198 156 129 119 121 140 164 170 159 161 161 163 167 164 167 164 163 170 171 184 188 194 187 159 128 293 146 144 138 135 137 130 105 102
119 60 282 246 232 330 288 115 158 114 149 213 178 144 164 151 136 123 122 111 128 172 188 174 169 167 165 170 178 175 172 176 180 187 202 209 214 268 248 215 266 278 256 231 223 210 152 108 111
107 136 215 221 194 275 16 22 153 115 188 286 85 96 128 141 148 149 160 165 176 189 196 190 182 179 174 178 189 178 187 187 180 190 219 209 216 241 267 267 274 269 283 282 300 310 311 93 155
170 201 228 287 251 256 267 197 190 134 243 217 167 142 145 153 166 169 175 176 186 189 185 191 188 185 183 185 179 187 193 194 190 204 205 209 219 247 270 279 308 318 304 326 340 337 353 54 142
280 255 227 227 226 255 237 184 182 158 238 164 163 154 151 166 175 182 185 188 175 185 194 188 194 190 192 173 178 183 188 198 213 212 202 190 214 229 229 250 267 255 277 295 289 289 309 309 354
195 258 274 275 282 257 180 187 136 191 177 126 150 160 164 171 186 192 190 187 184 194 192 195 188 191 190 184 169 181 207 205 214 208 203 192 203 221 223 230 235 236 255 249 263 271 254 287 308
212 263 280 289 297 264 109 107 102 202 160 146 160 174 187 176 185 197 198 192 188 196 196 191 195 192 183 189 187 195 198 215 208 213 215 209 200 218 228 228 229 237 214 230 239 243 255 255 228
250 320 321 287 330 56 101 57 219 175 157 164 179 184 190 203 180 193 199 198 194 198 194 189 194 190 187 192 195 199 201 199 203 213 206 211 202 214 214 217 218 232 218 226 221 236 195 239 170
6 58 6 272 88 142 56 228 257 158 161 178 186 192 202 211 211 195 193 202 197 197 194 192 191 194 194 193 193 201 206 202 209 208 200 207 212 199 198 198 219 217 211 189 193 180 254 225 217
4 218 252 314 102 99 77 268 177 161 199 191 189 200 203 211 228 220 200 190 198 197 194 196 192 193 199 199 198 205 204 203 207 205 208 207 206 196 194 200 221 190 192 196 199 199 182 246 238
191 221 294 258 269 122 183 232 193 187 196 202 199 202 207 210 220 214 206 193 187 201 197 195 193 193 196 197 196 201 211 205 200 210 206 204 205 202 196 200 211 199 179 202 214 213 202 206 215
140 209 266 277 254 349 274 234 207 196 212 212 208 211 214 219 215 220 210 192 186 197 202 196 192 197 178 175 180 187 205 187 207 205 204 201 205 201 198 205 208 196 208 210 188 190 208 243 207
157 258 273 284 300 105 296 304 283 189 207 204 203 213 219 229 221 216 216 200 194 196 201 203 199 192 191 196 198 196 185 189 186 196 204 201 199 198 199 202 208 207 169 221 213 175 173 257 170
219 199 244 216 349 293 342 315 310 330 309 219 233 231 232 229 222 221 216 216 196 200 202 205 201 196 195 195 136 81 60 29 169 213 192 197 201 214 205 204 198 205 219 207 191 193 185 227 349
259 201 241 243 92 233 63 273 293 234 230 242 244 237 248 246 236 231 225 222 215 214 199 205 203 201 198 189 184 198 198 202 215 221 196 190 197 204 184 183 172 326 326 300 281 134 139 134 284
235 161 216 196 156 116 350 72 267 351 244 240 249 244 246 243 225 228 238 248 254 282 217 200 204 208 205 202 204 203 205 193 192 181 162 167 172 172 182 155 152 117 2 260 234 190 179 153 147
57 112 45 68 100 55 258 124 355 359 324 286 262 254 253 309 289 240 217 230 228 194 177 185 195 210 200 198 206 204 202 190 187 176 177 151 168 170 172 160 127 31 252 238 245 240 173 167 155
97 70 7 10 17 203 163 85 156 338 359 2 17 39 37 44 37 21 24 13 340 219 193 187 193 214 197 209 211 202 234 244 261 196 155 161 192 165 188 202 193 208 265 293 241 195 179 160 181
167 137 145 173 185 254 313 74 3 16 15 43 38 60 39 46 32 28 25 64 60 64 55 52 228 218 163 132 129 100 46 44 35 351 313 203 86 53 158 184 211 262 298 268 259 259 179 165 170
185 90 169 102 20 64 270 6 92 30 24 28 22 25 16 3 6 343 316 10 12 4 10 1 333 205 149 101 94 99 93 79 56 18 348 339 42 61 359 130 78 101 191 184 195 157 216 138 125
137 155 81 16 127 203 330 86 314 346 338 324 24 2 346 332 342 347 359 1 13 31 34 32 50 85 99 106 105 103 81 58 75 99 325 292 357 1 270 106 171 196 203 182 114 96 83 95 74
66 88 54 112 122 156 147 275 342 311 308 304 323 331 334 315 345 360 344 11 48 50 54 50 56 80 94 104 118 131 152 348 326 125 228 268 19 175 107 118 91 76 86 74 102 97 106 116 123
108 136 121 122 218 95 126 249 305 293 307 316 349 352 5 13 30 32 46 49 42 44 57 68 74 89 89 111 150 235 19 74 131 169 217 204 98 81 103 106 98 102 93 106 96 115 119 121 115